Regional Weather Roundup
Issued by NWS

Home | Current Version | Previous Version | Text Only | Print | Product List | Glossary On
Versions: 1 2 3 4 5 6 7 8 9 10 11 12 13 14 15 16 17 18 19 20 21 22 23 24 25 26 27
000
ASPQ40 PGUM 230312
RWRPQ
WEATHER ROUNDUP FOR THE MARIANAS AND MICRONESIA
NATIONAL WEATHER SERVICE TIYAN GU
100 PM CHST FRI JUN 23 2017

GUZ001>004-230400-
MARIANA ISLANDS-

CITY           SKY/WX    TMP DP  RH WIND       PRES   REMARKS
GUAM AIRPORT   MOSUNNY   90  77  66 E14G23    29.84F HX 102
ANDERSEN AFB   MOSUNNY   86  77  74 NE18      29.86F HX  97
ROTA AIRPORT   MOSUNNY   84  75  74 E15       29.85F HX  92
TINIAN AP      MOSUNNY   86  75  70 NE17      29.83F HX  95
SAIPAN AP      MOSUNNY   86  79  79 E16       29.84F HX  99

$$

PMZ161-230400-
REPUBLIC OF PALAU-

CITY           SKY/WX    TMP DP  RH WIND       PRES   REMARKS
KOROR AP       SHOWER    75  73  94 N3        29.85F
KOROR WSO      LGT RAIN  77  73  88 E6        29.86F

$$

PMZ171>174-230400-
FEDERATED STATES OF MICRONESIA-

CITY           SKY/WX    TMP DP  RH WIND       PRES   REMARKS
YAP AIRPORT    PTSUNNY   82  81  94 S9        29.81F HX  95
CHUUK AP       CLOUDY    88  81  79 VRB6      29.77F HX 105
POHNPEI AP     PTSUNNY   88  77  70 MISG      29.78  HX 100
POHNPEI WSO    MOSUNNY   88  75  66 E7        29.81F HX  97
KOSRAE AP      PTSUNNY   88  75  66 NE10      29.77F HX  97

$$

PMZ181-230400-
REPUBLIC OF THE MARSHALL ISLANDS-

CITY           SKY/WX    TMP DP  RH WIND       PRES   REMARKS
KWAJALEIN AP   MOSUNNY   88  77  70 E15       29.78F HX 100
MAJURO AP      PTSUNNY   86  77  74 NE20      29.77  HX  97
MAJURO WSO     CLOUDY    86  77  74 E16       29.75F HX  97

$$





USA.gov is the U.S. government's official web portal to all federal, state and local government web resources and services.